Time,TemperatureF,DewpointF,PressureIn,WindDirection,WindDirectionDegrees,WindSpeedMPH,WindSpeedGustMPH,Humidity,HourlyPrecipIn,Conditions,Clouds,dailyrainin,SoftwareType,DateUTC
2013-02-13 00:00:00,28.2,16.5,29.87,West,270,15.0,16.0,61,0.00,,,0.00,meteohub,2013-02-13 05:00:00,
2013-02-13 00:05:00,28.2,16.5,29.87,WNW,293,12.0,21.0,61,0.00,,,0.00,meteohub,2013-02-13 05:05:00,
2013-02-13 00:10:00,28.2,16.5,29.87,NW,315,15.0,21.0,61,0.00,,,0.00,meteohub,2013-02-13 05:10:00,
2013-02-13 00:15:00,28.2,16.5,29.87,NW,315,12.0,17.0,61,0.00,,,0.00,meteohub,2013-02-13 05:15:00,
2013-02-13 00:20:00,28.4,18.1,29.87,NW,315,11.0,17.0,65,0.00,,,0.00,meteohub,2013-02-13 05:20:00,
2013-02-13 00:25:00,28.4,18.1,29.86,North,0,19.0,19.0,65,0.00,,,0.00,meteohub,2013-02-13 05:25:00,
2013-02-13 00:30:00,28.4,18.1,29.86,North,0,15.0,19.0,65,0.00,,,0.00,meteohub,2013-02-13 05:30:00,
2013-02-13 00:35:00,28.4,17.8,29.87,NW,315,15.0,19.0,64,0.00,,,0.00,meteohub,2013-02-13 05:35:00,
2013-02-13 00:40:00,28.4,17.8,29.86,NW,315,11.0,19.0,64,0.00,,,0.00,meteohub,2013-02-13 05:40:00,
2013-02-13 00:45:00,28.4,18.1,29.86,NW,315,12.0,17.0,65,0.00,,,0.00,meteohub,2013-02-13 05:45:00,
2013-02-13 00:50:00,28.4,18.1,29.86,NW,315,13.0,17.0,65,0.00,,,0.00,meteohub,2013-02-13 05:50:00,
2013-02-13 00:55:00,28.4,18.1,29.86,NW,315,12.0,17.0,65,0.00,,,0.00,meteohub,2013-02-13 05:55:00,
2013-02-13 01:00:00,28.4,18.5,29.86,NW,315,15.0,17.0,66,0.00,,,0.00,meteohub,2013-02-13 06:00:00,
2013-02-13 01:05:00,28.4,18.5,29.86,NW,315,15.0,15.0,66,0.00,,,0.00,meteohub,2013-02-13 06:05:00,
2013-02-13 01:10:00,28.6,18.3,29.86,NNW,338,9.0,15.0,65,0.00,,,0.00,meteohub,2013-02-13 06:10:00,
2013-02-13 01:15:00,28.6,18.7,29.85,North,0,8.0,15.0,66,0.00,,,0.00,meteohub,2013-02-13 06:15:00,
2013-02-13 01:20:00,28.6,18.7,29.85,NW,315,14.0,15.0,66,0.00,,,0.00,meteohub,2013-02-13 06:20:00,
2013-02-13 01:26:00,28.8,19.2,29.84,NW,315,17.0,20.0,67,0.00,,,0.00,meteohub,2013-02-13 06:26:00,
2013-02-13 01:31:00,29.1,19.2,29.84,NW,315,11.0,20.0,66,0.00,,,0.00,meteohub,2013-02-13 06:31:00,
2013-02-13 01:36:00,29.1,19.6,29.84,NW,315,16.0,20.0,67,0.00,,,0.00,meteohub,2013-02-13 06:36:00,
2013-02-13 01:41:00,29.3,19.4,29.84,NW,315,12.0,23.0,66,0.00,,,0.00,meteohub,2013-02-13 06:41:00,
2013-02-13 01:46:00,29.3,19.4,29.84,NW,315,15.0,23.0,66,0.00,,,0.00,meteohub,2013-02-13 06:46:00,
2013-02-13 01:51:00,29.3,19.8,29.83,West,270,17.0,23.0,67,0.00,,,0.00,meteohub,2013-02-13 06:51:00,
2013-02-13 01:56:00,29.5,19.6,29.83,NW,315,15.0,17.0,66,0.00,,,0.00,meteohub,2013-02-13 06:56:00,
2013-02-13 02:01:00,29.7,20.1,29.83,NW,315,16.0,17.0,67,0.00,,,0.00,meteohub,2013-02-13 07:01:00,
2013-02-13 02:06:00,29.7,20.1,29.83,NW,315,15.0,17.0,67,0.00,,,0.00,meteohub,2013-02-13 07:06:00,
2013-02-13 02:11:00,29.8,20.3,29.83,NW,315,12.0,17.0,67,0.00,,,0.00,meteohub,2013-02-13 07:11:00,
2013-02-13 02:16:00,29.8,20.3,29.83,WNW,293,17.0,17.0,67,0.00,,,0.00,meteohub,2013-02-13 07:16:00,
2013-02-13 02:21:00,30.0,20.5,29.83,NW,315,15.0,18.0,67,0.00,,,0.00,meteohub,2013-02-13 07:21:00,
2013-02-13 02:26:00,30.0,20.5,29.83,NW,315,18.0,20.0,67,0.00,,,0.00,meteohub,2013-02-13 07:26:00,
2013-02-13 02:31:00,30.0,20.7,29.83,NW,315,15.0,20.0,68,0.00,,,0.00,meteohub,2013-02-13 07:31:00,
2013-02-13 02:36:00,30.2,20.5,29.83,NW,315,15.0,20.0,67,0.00,,,0.00,meteohub,2013-02-13 07:36:00,
2013-02-13 02:41:00,30.2,20.5,29.83,NW,315,14.0,18.0,67,0.00,,,0.00,meteohub,2013-02-13 07:41:00,
2013-02-13 02:46:00,30.4,20.7,29.82,NW,315,14.0,17.0,67,0.00,,,0.00,meteohub,2013-02-13 07:46:00,
2013-02-13 02:51:00,30.4,20.7,29.82,NW,315,20.0,20.0,67,0.00,,,0.00,meteohub,2013-02-13 07:51:00,
2013-02-13 02:56:00,30.6,20.8,29.82,NNW,338,19.0,20.0,67,0.00,,,0.00,meteohub,2013-02-13 07:56:00,
2013-02-13 03:01:00,30.7,21.4,29.82,NW,315,15.0,20.0,68,0.00,,,0.00,meteohub,2013-02-13 08:01:00,
2013-02-13 03:06:00,30.7,21.4,29.82,NW,315,15.0,20.0,68,0.00,,,0.00,meteohub,2013-02-13 08:06:00,
2013-02-13 03:11:00,30.9,21.6,29.81,NW,315,12.0,19.0,68,0.00,,,0.00,meteohub,2013-02-13 08:11:00,
2013-02-13 03:16:00,30.9,21.6,29.81,NW,315,17.0,19.0,68,0.00,,,0.00,meteohub,2013-02-13 08:16:00,
2013-02-13 03:21:00,31.1,21.7,29.81,NW,315,12.0,19.0,68,0.00,,,0.00,meteohub,2013-02-13 08:21:00,
2013-02-13 03:26:00,31.1,22.1,29.81,NW,315,11.0,19.0,69,0.00,,,0.00,meteohub,2013-02-13 08:26:00,
2013-02-13 03:31:00,31.1,22.1,29.81,NW,315,13.0,19.0,69,0.00,,,0.00,meteohub,2013-02-13 08:31:00,
2013-02-13 03:36:00,31.3,21.9,29.80,NW,315,16.0,21.0,68,0.00,,,0.00,meteohub,2013-02-13 08:36:00,
2013-02-13 03:41:00,31.3,21.9,29.80,NW,315,17.0,21.0,68,0.00,,,0.00,meteohub,2013-02-13 08:41:00,
2013-02-13 03:46:00,31.5,22.1,29.80,West,270,16.0,21.0,68,0.00,,,0.00,meteohub,2013-02-13 08:46:00,
2013-02-13 03:51:00,31.5,22.1,29.80,WNW,293,17.0,21.0,68,0.00,,,0.00,meteohub,2013-02-13 08:51:00,
2013-02-13 03:56:00,31.5,21.7,29.80,West,270,17.0,21.0,67,0.00,,,0.00,meteohub,2013-02-13 08:56:00,
2013-02-13 04:02:00,31.5,21.7,29.80,NW,315,14.0,21.0,67,0.00,,,0.00,meteohub,2013-02-13 09:02:00,
2013-02-13 04:07:00,31.5,22.1,29.80,NW,315,15.0,20.0,68,0.00,,,0.00,meteohub,2013-02-13 09:07:00,
2013-02-13 04:12:00,31.5,22.1,29.80,NW,315,19.0,20.0,68,0.00,,,0.00,meteohub,2013-02-13 09:12:00,
2013-02-13 04:17:00,31.5,22.1,29.80,North,0,14.0,20.0,68,0.00,,,0.00,meteohub,2013-02-13 09:17:00,
2013-02-13 04:22:00,31.3,21.9,29.80,NW,315,19.0,20.0,68,0.00,,,0.00,meteohub,2013-02-13 09:22:00,
2013-02-13 04:27:00,31.3,21.9,29.79,West,270,17.0,19.0,68,0.00,,,0.00,meteohub,2013-02-13 09:27:00,
2013-02-13 04:31:00,31.3,21.9,29.78,WNW,293,13.0,19.0,68,0.00,,,0.00,meteohub,2013-02-13 09:31:00,
2013-02-13 04:36:00,31.1,21.7,29.79,NW,315,15.0,19.0,68,0.00,,,0.00,meteohub,2013-02-13 09:36:00,
2013-02-13 04:41:00,31.1,21.7,29.79,WNW,293,15.0,18.0,68,0.00,,,0.00,meteohub,2013-02-13 09:41:00,
2013-02-13 04:46:00,31.1,21.7,29.79,NW,315,15.0,17.0,68,0.00,,,0.00,meteohub,2013-02-13 09:46:00,
2013-02-13 04:51:00,31.1,21.7,29.79,NW,315,15.0,19.0,68,0.00,,,0.00,meteohub,2013-02-13 09:51:00,
2013-02-13 04:56:00,31.3,21.9,29.78,NW,315,17.0,19.0,68,0.00,,,0.00,meteohub,2013-02-13 09:56:00,
2013-02-13 05:01:00,31.3,21.9,29.79,NW,315,13.0,19.0,68,0.00,,,0.00,meteohub,2013-02-13 10:01:00,
2013-02-13 05:06:00,31.3,21.9,29.78,NW,315,13.0,17.0,68,0.00,,,0.00,meteohub,2013-02-13 10:06:00,
2013-02-13 05:12:00,31.1,21.7,29.78,NNW,338,16.0,19.0,68,0.00,,,0.00,meteohub,2013-02-13 10:12:00,
2013-02-13 05:16:00,30.9,21.9,29.78,NNW,338,11.0,19.0,69,0.00,,,0.00,meteohub,2013-02-13 10:16:00,
2013-02-13 05:22:00,30.9,21.9,29.78,NW,315,15.0,19.0,69,0.00,,,0.00,meteohub,2013-02-13 10:22:00,
2013-02-13 05:27:00,31.1,22.1,29.78,NW,315,11.0,16.0,69,0.00,,,0.00,meteohub,2013-02-13 10:27:00,
2013-02-13 05:32:00,31.3,22.3,29.78,WNW,293,11.0,15.0,69,0.00,,,0.00,meteohub,2013-02-13 10:32:00,
2013-02-13 05:37:00,31.3,22.3,29.78,NW,315,15.0,15.0,69,0.00,,,0.00,meteohub,2013-02-13 10:37:00,
2013-02-13 05:42:00,31.3,22.3,29.78,NNW,338,14.0,17.0,69,0.00,,,0.00,meteohub,2013-02-13 10:42:00,
2013-02-13 05:47:00,31.5,22.5,29.78,NW,315,13.0,17.0,69,0.00,,,0.00,meteohub,2013-02-13 10:47:00,
2013-02-13 05:52:00,31.5,22.5,29.78,NW,315,12.0,16.0,69,0.00,,,0.00,meteohub,2013-02-13 10:52:00,
2013-02-13 05:57:00,31.6,22.3,29.77,NW,315,14.0,17.0,68,0.00,,,0.00,meteohub,2013-02-13 10:57:00,
2013-02-13 06:02:00,31.6,22.3,29.77,NNW,338,15.0,17.0,68,0.00,,,0.00,meteohub,2013-02-13 11:02:00,
2013-02-13 06:07:00,31.5,22.5,29.77,NW,315,11.0,17.0,69,0.00,,,0.00,meteohub,2013-02-13 11:07:00,
2013-02-13 06:12:00,31.5,22.5,29.77,NW,315,16.0,17.0,69,0.00,,,0.00,meteohub,2013-02-13 11:12:00,
2013-02-13 06:17:00,31.5,22.5,29.77,NW,315,13.0,17.0,69,0.00,,,0.00,meteohub,2013-02-13 11:17:00,
2013-02-13 06:22:00,31.5,22.5,29.76,NW,315,15.0,20.0,69,0.00,,,0.00,meteohub,2013-02-13 11:22:00,
2013-02-13 06:27:00,31.5,22.5,29.76,NNW,338,16.0,20.0,69,0.00,,,0.00,meteohub,2013-02-13 11:27:00,
2013-02-13 06:32:00,31.3,22.3,29.76,NW,315,13.0,20.0,69,0.00,,,0.00,meteohub,2013-02-13 11:32:00,
2013-02-13 06:37:00,31.5,22.8,29.76,NW,315,14.0,16.0,70,0.00,,,0.00,meteohub,2013-02-13 11:37:00,
2013-02-13 06:41:00,31.5,22.8,29.76,NNW,338,14.0,17.0,70,0.00,,,0.00,meteohub,2013-02-13 11:41:00,
2013-02-13 06:42:00,31.5,22.8,29.76,NNW,338,14.0,17.0,70,0.00,,,0.00,meteohub,2013-02-13 11:42:00,
2013-02-13 06:47:00,31.6,23.0,29.77,North,0,13.0,17.0,70,0.00,,,0.00,meteohub,2013-02-13 11:47:00,
2013-02-13 06:52:00,31.6,23.0,29.76,NW,315,14.0,17.0,70,0.00,,,0.00,meteohub,2013-02-13 11:52:00,
2013-02-13 06:57:00,31.6,23.4,29.76,NW,315,11.0,17.0,71,0.00,,,0.00,meteohub,2013-02-13 11:57:00,
2013-02-13 07:02:00,31.6,23.4,29.76,NNW,338,14.0,15.0,71,0.00,,,0.00,meteohub,2013-02-13 12:02:00,
2013-02-13 07:07:00,31.6,23.4,29.76,NNW,338,14.0,15.0,71,0.00,,,0.00,meteohub,2013-02-13 12:07:00,
2013-02-13 07:12:00,32.0,23.4,29.75,NNW,338,14.0,15.0,70,0.00,,,0.00,meteohub,2013-02-13 12:12:00,
2013-02-13 07:17:00,32.0,23.4,29.75,NW,315,17.0,21.0,70,0.00,,,0.00,meteohub,2013-02-13 12:17:00,
2013-02-13 07:22:00,32.0,23.4,29.76,NW,315,17.0,21.0,70,0.00,,,0.00,meteohub,2013-02-13 12:22:00,
2013-02-13 07:27:00,32.2,23.5,29.75,NW,315,19.0,21.0,70,0.00,,,0.00,meteohub,2013-02-13 12:27:00,
2013-02-13 07:32:00,32.2,23.2,29.75,NW,315,15.0,21.0,69,0.00,,,0.00,meteohub,2013-02-13 12:32:00,
2013-02-13 07:37:00,32.2,23.5,29.75,NW,315,16.0,21.0,70,0.00,,,0.00,meteohub,2013-02-13 12:37:00,
2013-02-13 07:42:00,32.4,23.4,29.75,North,0,21.0,21.0,69,0.00,,,0.00,meteohub,2013-02-13 12:42:00,
2013-02-13 07:47:00,32.4,23.0,29.76,NW,315,12.0,21.0,68,0.00,,,0.00,meteohub,2013-02-13 12:47:00,
2013-02-13 07:52:00,32.4,23.4,29.75,NW,315,14.0,21.0,69,0.00,,,0.00,meteohub,2013-02-13 12:52:00,
2013-02-13 07:57:00,32.4,23.4,29.76,NW,315,15.0,21.0,69,0.00,,,0.00,meteohub,2013-02-13 12:57:00,
2013-02-13 08:02:00,32.4,23.4,29.75,NW,315,12.0,18.0,69,0.00,,,0.00,meteohub,2013-02-13 13:02:00,
2013-02-13 08:07:00,32.4,23.7,29.75,NW,315,16.0,17.0,70,0.00,,,0.00,meteohub,2013-02-13 13:07:00,
2013-02-13 08:12:00,32.4,24.1,29.75,NW,315,14.0,17.0,71,0.00,,,0.00,meteohub,2013-02-13 13:12:00,
2013-02-13 08:17:00,32.2,24.3,29.75,NNW,338,16.0,17.0,72,0.00,,,0.00,meteohub,2013-02-13 13:17:00,
2013-02-13 08:22:00,32.2,24.3,29.75,NW,315,16.0,16.0,72,0.00,,,0.00,meteohub,2013-02-13 13:22:00,
2013-02-13 08:27:00,32.2,24.3,29.75,NNW,338,15.0,17.0,72,0.00,,,0.00,meteohub,2013-02-13 13:27:00,
2013-02-13 08:32:00,32.2,24.3,29.75,NNW,338,14.0,18.0,72,0.00,,,0.00,meteohub,2013-02-13 13:32:00,
2013-02-13 08:37:00,32.2,24.3,29.75,NW,315,17.0,18.0,72,0.00,,,0.00,meteohub,2013-02-13 13:37:00,
2013-02-13 08:43:00,32.4,24.3,29.75,NNW,338,17.0,18.0,72,0.00,,,0.00,meteohub,2013-02-13 13:43:00,
2013-02-13 08:48:00,32.4,24.3,29.75,NNW,338,12.0,19.0,72,0.00,,,0.00,meteohub,2013-02-13 13:48:00,
2013-02-13 08:53:00,32.4,24.3,29.75,NW,315,15.0,19.0,72,0.00,,,0.00,meteohub,2013-02-13 13:53:00,
2013-02-13 08:58:00,32.4,24.3,29.75,NW,315,16.0,19.0,72,0.00,,,0.00,meteohub,2013-02-13 13:58:00,
2013-02-13 09:03:00,32.4,24.3,29.75,NW,315,20.0,20.0,72,0.00,,,0.00,meteohub,2013-02-13 14:03:00,
2013-02-13 09:08:00,32.4,24.3,29.75,NW,315,15.0,20.0,72,0.00,,,0.00,meteohub,2013-02-13 14:08:00,
2013-02-13 09:13:00,32.4,24.3,29.75,NW,315,15.0,20.0,72,0.00,,,0.00,meteohub,2013-02-13 14:13:00,
2013-02-13 09:18:00,32.4,24.1,29.75,NW,315,22.0,22.0,71,0.00,,,0.00,meteohub,2013-02-13 14:18:00,
2013-02-13 09:23:00,32.2,23.9,29.75,NNW,338,16.0,22.0,71,0.00,,,0.00,meteohub,2013-02-13 14:23:00,
2013-02-13 09:28:00,32.4,24.1,29.74,NW,315,16.0,22.0,71,0.00,,,0.00,meteohub,2013-02-13 14:28:00,
2013-02-13 09:33:00,32.4,24.1,29.74,NW,315,18.0,22.0,71,0.00,,,0.00,meteohub,2013-02-13 14:33:00,
2013-02-13 09:38:00,32.4,24.3,29.74,NW,315,18.0,22.0,72,0.00,,,0.00,meteohub,2013-02-13 14:38:00,
2013-02-13 09:43:00,32.4,24.3,29.74,NW,315,20.0,21.0,72,0.00,,,0.00,meteohub,2013-02-13 14:43:00,
2013-02-13 09:48:00,32.4,24.3,29.74,NW,315,15.0,21.0,72,0.00,,,0.00,meteohub,2013-02-13 14:48:00,
2013-02-13 09:53:00,32.4,24.3,29.74,NNW,338,15.0,20.0,72,0.00,,,0.00,meteohub,2013-02-13 14:53:00,
2013-02-13 09:58:00,32.4,24.3,29.74,NW,315,19.0,20.0,72,0.00,,,0.00,meteohub,2013-02-13 14:58:00,
2013-02-13 10:03:00,32.5,24.4,29.74,NW,315,15.0,19.0,72,0.00,,,0.00,meteohub,2013-02-13 15:03:00,
2013-02-13 10:09:00,32.7,24.6,29.74,NW,315,14.0,21.0,72,0.00,,,0.00,meteohub,2013-02-13 15:09:00,
2013-02-13 10:14:00,32.7,24.4,29.74,NW,315,16.0,21.0,71,0.00,,,0.00,meteohub,2013-02-13 15:14:00,
2013-02-13 10:19:00,32.9,24.6,29.74,NW,315,19.0,21.0,71,0.00,,,0.00,meteohub,2013-02-13 15:19:00,
2013-02-13 10:24:00,32.9,24.3,29.74,NW,315,18.0,20.0,70,0.00,,,0.00,meteohub,2013-02-13 15:24:00,
2013-02-13 10:29:00,32.9,24.3,29.73,NNW,338,21.0,21.0,70,0.00,,,0.00,meteohub,2013-02-13 15:29:00,
2013-02-13 10:34:00,32.9,24.3,29.74,NW,315,15.0,20.0,70,0.00,,,0.00,meteohub,2013-02-13 15:34:00,
2013-02-13 10:39:00,32.9,24.3,29.74,North,0,14.0,21.0,70,0.00,,,0.00,meteohub,2013-02-13 15:39:00,
2013-02-13 10:44:00,33.1,24.4,29.73,NW,315,20.0,21.0,70,0.00,,,0.00,meteohub,2013-02-13 15:44:00,
2013-02-13 10:49:00,33.1,24.4,29.74,North,0,17.0,19.0,70,0.00,,,0.00,meteohub,2013-02-13 15:49:00,
2013-02-13 10:54:00,33.1,24.4,29.74,North,0,18.0,21.0,70,0.00,,,0.00,meteohub,2013-02-13 15:54:00,
2013-02-13 10:59:00,33.1,24.4,29.74,NW,315,19.0,21.0,70,0.00,,,0.00,meteohub,2013-02-13 15:59:00,
2013-02-13 11:04:00,33.1,24.4,29.73,NNW,338,19.0,21.0,70,0.00,,,0.00,meteohub,2013-02-13 16:04:00,
2013-02-13 11:09:00,32.9,24.3,29.73,NW,315,17.0,21.0,70,0.00,,,0.00,meteohub,2013-02-13 16:09:00,
2013-02-13 11:14:00,33.1,24.4,29.74,North,0,17.0,21.0,70,0.00,,,0.00,meteohub,2013-02-13 16:14:00,
2013-02-13 11:19:00,33.1,24.4,29.73,North,0,19.0,20.0,70,0.00,,,0.00,meteohub,2013-02-13 16:19:00,
2013-02-13 11:24:00,32.7,24.1,29.74,NNW,338,17.0,21.0,70,0.00,,,0.00,meteohub,2013-02-13 16:24:00,
2013-02-13 11:29:00,32.9,24.3,29.73,North,0,16.0,23.0,70,0.00,,,0.00,meteohub,2013-02-13 16:29:00,
2013-02-13 11:34:00,32.9,24.3,29.74,North,0,18.0,23.0,70,0.00,,,0.00,meteohub,2013-02-13 16:34:00,
2013-02-13 11:39:00,32.9,24.3,29.74,North,0,17.0,23.0,70,0.00,,,0.00,meteohub,2013-02-13 16:39:00,
2013-02-13 11:44:00,32.7,24.1,29.74,NNW,338,17.0,21.0,70,0.00,,,0.00,meteohub,2013-02-13 16:44:00,
2013-02-13 11:50:00,32.9,24.6,29.74,WNW,293,17.0,23.0,71,0.00,,,0.00,meteohub,2013-02-13 16:50:00,
2013-02-13 11:55:00,32.7,24.4,29.73,North,0,15.0,23.0,71,0.00,,,0.00,meteohub,2013-02-13 16:55:00,
2013-02-13 12:00:00,32.7,24.1,29.74,North,0,19.0,23.0,70,0.00,,,0.00,meteohub,2013-02-13 17:00:00,
2013-02-13 12:05:00,32.7,24.4,29.74,NW,315,17.0,20.0,71,0.00,,,0.00,meteohub,2013-02-13 17:05:00,
2013-02-13 12:10:00,32.7,24.4,29.74,North,0,17.0,20.0,71,0.00,,,0.00,meteohub,2013-02-13 17:10:00,
2013-02-13 12:15:00,32.7,24.1,29.73,North,0,16.0,20.0,70,0.00,,,0.00,meteohub,2013-02-13 17:15:00,
2013-02-13 12:20:00,32.7,24.1,29.74,North,0,18.0,20.0,70,0.00,,,0.00,meteohub,2013-02-13 17:20:00,
2013-02-13 12:25:00,32.7,24.1,29.74,NW,315,17.0,21.0,70,0.00,,,0.00,meteohub,2013-02-13 17:25:00,
2013-02-13 12:30:00,32.5,23.9,29.73,NW,315,17.0,21.0,70,0.00,,,0.00,meteohub,2013-02-13 17:30:00,
2013-02-13 12:35:00,32.9,24.6,29.73,NW,315,17.0,21.0,71,0.00,,,0.00,meteohub,2013-02-13 17:35:00,
2013-02-13 12:40:00,33.1,24.4,29.73,NW,315,18.0,20.0,70,0.00,,,0.00,meteohub,2013-02-13 17:40:00,
2013-02-13 12:45:00,33.1,24.4,29.73,NNW,338,16.0,20.0,70,0.00,,,0.00,meteohub,2013-02-13 17:45:00,
2013-02-13 12:50:00,33.3,24.6,29.73,NW,315,21.0,21.0,70,0.00,,,0.00,meteohub,2013-02-13 17:50:00,
2013-02-13 12:55:00,33.1,24.4,29.73,North,0,16.0,21.0,70,0.00,,,0.00,meteohub,2013-02-13 17:55:00,
2013-02-13 13:00:00,33.4,24.4,29.73,NW,315,18.0,21.0,69,0.00,,,0.00,meteohub,2013-02-13 18:00:00,
2013-02-13 13:05:00,33.4,24.4,29.73,NW,315,18.0,21.0,69,0.00,,,0.00,meteohub,2013-02-13 18:05:00,
2013-02-13 13:10:00,33.4,24.8,29.73,NW,315,14.0,20.0,70,0.00,,,0.00,meteohub,2013-02-13 18:10:00,
2013-02-13 13:15:00,33.4,24.8,29.73,NW,315,17.0,19.0,70,0.00,,,0.00,meteohub,2013-02-13 18:15:00,
2013-02-13 13:20:00,33.3,24.6,29.72,NW,315,16.0,22.0,70,0.00,,,0.00,meteohub,2013-02-13 18:20:00,
2013-02-13 13:25:00,33.1,24.4,29.72,NW,315,21.0,23.0,70,0.00,,,0.00,meteohub,2013-02-13 18:25:00,
2013-02-13 13:30:00,33.1,24.6,29.72,NNW,338,14.0,23.0,71,0.00,,,0.00,meteohub,2013-02-13 18:30:00,
2013-02-13 13:35:00,33.3,24.8,29.72,NW,315,15.0,23.0,71,0.00,,,0.00,meteohub,2013-02-13 18:35:00,
2013-02-13 13:40:00,33.3,24.8,29.72,NW,315,15.0,21.0,71,0.00,,,0.00,meteohub,2013-02-13 18:40:00,
2013-02-13 13:45:00,33.3,24.8,29.72,NW,315,13.0,19.0,71,0.00,,,0.00,meteohub,2013-02-13 18:45:00,
2013-02-13 13:50:00,33.3,24.8,29.72,NW,315,16.0,17.0,71,0.00,,,0.00,meteohub,2013-02-13 18:50:00,
2013-02-13 13:55:00,33.3,24.8,29.72,North,0,18.0,18.0,71,0.00,,,0.00,meteohub,2013-02-13 18:55:00,
2013-02-13 14:01:00,33.3,24.8,29.72,NW,315,12.0,20.0,71,0.00,,,0.00,meteohub,2013-02-13 19:01:00,
2013-02-13 14:06:00,33.4,25.0,29.72,NNW,338,15.0,20.0,71,0.00,,,0.00,meteohub,2013-02-13 19:06:00,
2013-02-13 14:11:00,33.4,25.0,29.72,NW,315,12.0,20.0,71,0.00,,,0.00,meteohub,2013-02-13 19:11:00,
2013-02-13 14:16:00,33.4,25.3,29.72,North,0,11.0,19.0,72,0.00,,,0.00,meteohub,2013-02-13 19:16:00,
2013-02-13 14:21:00,33.6,25.5,29.72,NW,315,13.0,17.0,72,0.00,,,0.00,meteohub,2013-02-13 19:21:00,
2013-02-13 14:26:00,33.6,25.5,29.72,NW,315,15.0,17.0,72,0.00,,,0.00,meteohub,2013-02-13 19:26:00,
2013-02-13 14:31:00,33.6,25.5,29.72,NNW,338,13.0,17.0,72,0.00,,,0.00,meteohub,2013-02-13 19:31:00,
2013-02-13 14:36:00,33.6,25.5,29.72,North,0,11.0,17.0,72,0.00,,,0.00,meteohub,2013-02-13 19:36:00,
2013-02-13 14:41:00,33.8,25.3,29.72,NNW,338,14.0,20.0,71,0.00,,,0.00,meteohub,2013-02-13 19:41:00,
2013-02-13 14:46:00,34.0,25.5,29.72,West,270,13.0,20.0,71,0.00,,,0.00,meteohub,2013-02-13 19:46:00,
2013-02-13 14:51:00,34.0,25.2,29.72,NW,315,17.0,20.0,70,0.00,,,0.00,meteohub,2013-02-13 19:51:00,
2013-02-13 14:56:00,33.8,25.0,29.72,NW,315,17.0,20.0,70,0.00,,,0.00,meteohub,2013-02-13 19:56:00,
2013-02-13 15:01:00,33.8,25.3,29.72,NW,315,15.0,20.0,71,0.00,,,0.00,meteohub,2013-02-13 20:01:00,
2013-02-13 15:06:00,33.8,25.3,29.72,NW,315,15.0,18.0,71,0.00,,,0.00,meteohub,2013-02-13 20:06:00,
2013-02-13 15:11:00,34.0,25.5,29.72,NNW,338,15.0,17.0,71,0.00,,,0.00,meteohub,2013-02-13 20:11:00,
2013-02-13 15:16:00,34.0,25.5,29.72,NW,315,16.0,17.0,71,0.00,,,0.00,meteohub,2013-02-13 20:16:00,
2013-02-13 15:21:00,34.2,25.7,29.72,NW,315,15.0,18.0,71,0.00,,,0.00,meteohub,2013-02-13 20:21:00,
2013-02-13 15:26:00,34.2,25.7,29.72,NW,315,15.0,18.0,71,0.00,,,0.00,meteohub,2013-02-13 20:26:00,
2013-02-13 15:31:00,34.2,25.7,29.72,NNW,338,14.0,17.0,71,0.00,,,0.00,meteohub,2013-02-13 20:31:00,
2013-02-13 15:36:00,34.3,25.9,29.73,NW,315,13.0,17.0,71,0.00,,,0.00,meteohub,2013-02-13 20:36:00,
2013-02-13 15:41:00,34.3,25.9,29.72,NW,315,15.0,17.0,71,0.00,,,0.00,meteohub,2013-02-13 20:41:00,
2013-02-13 15:46:00,34.5,26.1,29.72,NW,315,14.0,16.0,71,0.00,,,0.00,meteohub,2013-02-13 20:46:00,
2013-02-13 15:51:00,34.5,26.1,29.73,NW,315,13.0,16.0,71,0.00,,,0.00,meteohub,2013-02-13 20:51:00,
2013-02-13 15:57:00,34.5,26.1,29.73,NW,315,15.0,16.0,71,0.00,,,0.00,meteohub,2013-02-13 20:57:00,
2013-02-13 16:02:00,34.3,25.9,29.72,NW,315,16.0,17.0,71,0.00,,,0.00,meteohub,2013-02-13 21:02:00,
2013-02-13 16:07:00,34.3,26.2,29.72,NW,315,17.0,17.0,72,0.00,,,0.00,meteohub,2013-02-13 21:07:00,
2013-02-13 16:12:00,34.3,26.2,29.72,NW,315,18.0,18.0,72,0.00,,,0.00,meteohub,2013-02-13 21:12:00,
2013-02-13 16:17:00,34.3,26.2,29.73,NW,315,20.0,20.0,72,0.00,,,0.00,meteohub,2013-02-13 21:17:00,
2013-02-13 16:22:00,34.5,26.1,29.73,NW,315,19.0,20.0,71,0.00,,,0.00,meteohub,2013-02-13 21:22:00,
2013-02-13 16:27:00,34.5,26.1,29.73,NW,315,17.0,20.0,71,0.00,,,0.00,meteohub,2013-02-13 21:27:00,
2013-02-13 16:32:00,34.3,26.2,29.73,NNW,338,14.0,20.0,72,0.00,,,0.00,meteohub,2013-02-13 21:32:00,
2013-02-13 16:37:00,34.3,26.2,29.73,NW,315,13.0,19.0,72,0.00,,,0.00,meteohub,2013-02-13 21:37:00,
2013-02-13 16:42:00,34.3,26.2,29.73,NW,315,17.0,18.0,72,0.00,,,0.00,meteohub,2013-02-13 21:42:00,
2013-02-13 16:47:00,34.3,26.2,29.73,NW,315,11.0,17.0,72,0.00,,,0.00,meteohub,2013-02-13 21:47:00,
2013-02-13 16:52:00,34.3,26.2,29.73,NW,315,13.0,17.0,72,0.00,,,0.00,meteohub,2013-02-13 21:52:00,
2013-02-13 16:57:00,34.3,26.2,29.73,NW,315,15.0,17.0,72,0.00,,,0.00,meteohub,2013-02-13 21:57:00,
2013-02-13 17:02:00,34.3,26.2,29.73,NW,315,17.0,18.0,72,0.00,,,0.00,meteohub,2013-02-13 22:02:00,
2013-02-13 17:07:00,34.2,26.1,29.73,NW,315,18.0,18.0,72,0.00,,,0.00,meteohub,2013-02-13 22:07:00,
2013-02-13 17:12:00,34.3,26.2,29.73,NW,315,15.0,18.0,72,0.00,,,0.00,meteohub,2013-02-13 22:12:00,
2013-02-13 17:17:00,34.2,26.1,29.73,NW,315,15.0,19.0,72,0.00,,,0.00,meteohub,2013-02-13 22:17:00,
2013-02-13 17:22:00,34.2,26.1,29.73,NW,315,15.0,19.0,72,0.00,,,0.00,meteohub,2013-02-13 22:22:00,
2013-02-13 17:27:00,34.2,26.1,29.73,NW,315,15.0,19.0,72,0.00,,,0.00,meteohub,2013-02-13 22:27:00,
2013-02-13 17:32:00,34.2,26.1,29.73,NW,315,10.0,17.0,72,0.00,,,0.00,meteohub,2013-02-13 22:32:00,
2013-02-13 17:37:00,34.2,26.4,29.73,WNW,293,12.0,15.0,73,0.00,,,0.00,meteohub,2013-02-13 22:37:00,
2013-02-13 17:42:00,34.2,26.4,29.73,NW,315,12.0,15.0,73,0.00,,,0.00,meteohub,2013-02-13 22:42:00,
2013-02-13 17:47:00,34.2,26.4,29.73,WNW,293,11.0,15.0,73,0.00,,,0.00,meteohub,2013-02-13 22:47:00,
2013-02-13 17:52:00,34.0,26.2,29.72,NW,315,15.0,15.0,73,0.00,,,0.00,meteohub,2013-02-13 22:52:00,
2013-02-13 17:58:00,34.2,26.4,29.72,SW,225,17.0,17.0,73,0.00,,,0.00,meteohub,2013-02-13 22:58:00,
2013-02-13 18:03:00,34.2,26.4,29.72,WSW,248,15.0,18.0,73,0.00,,,0.00,meteohub,2013-02-13 23:03:00,
2013-02-13 18:08:00,34.2,26.4,29.72,WSW,248,14.0,19.0,73,0.00,,,0.00,meteohub,2013-02-13 23:08:00,
2013-02-13 18:13:00,34.2,26.4,29.72,West,270,19.0,23.0,73,0.00,,,0.00,meteohub,2013-02-13 23:13:00,
2013-02-13 18:18:00,34.2,26.4,29.73,West,270,15.0,23.0,73,0.00,,,0.00,meteohub,2013-02-13 23:18:00,
2013-02-13 18:23:00,34.2,26.4,29.72,West,270,20.0,23.0,73,0.00,,,0.00,meteohub,2013-02-13 23:23:00,
2013-02-13 18:28:00,34.2,26.4,29.72,West,270,16.0,20.0,73,0.00,,,0.00,meteohub,2013-02-13 23:28:00,
2013-02-13 18:33:00,34.2,26.4,29.73,NW,315,14.0,20.0,73,0.00,,,0.00,meteohub,2013-02-13 23:33:00,
2013-02-13 18:38:00,34.2,26.4,29.73,NW,315,13.0,20.0,73,0.00,,,0.00,meteohub,2013-02-13 23:38:00,
2013-02-13 18:43:00,34.2,26.4,29.73,NW,315,17.0,17.0,73,0.00,,,0.00,meteohub,2013-02-13 23:43:00,
2013-02-13 18:48:00,34.2,26.4,29.73,NW,315,16.0,17.0,73,0.00,,,0.00,meteohub,2013-02-13 23:48:00,
2013-02-13 18:53:00,34.2,26.4,29.73,West,270,14.0,20.0,73,0.00,,,0.00,meteohub,2013-02-13 23:53:00,
2013-02-13 18:58:00,34.2,26.4,29.73,West,270,11.0,20.0,73,0.00,,,0.00,meteohub,2013-02-13 23:58:00,
2013-02-13 19:03:00,34.2,26.4,29.73,NW,315,10.0,20.0,73,0.00,,,0.00,meteohub,2013-02-14 00:03:00,
2013-02-13 19:08:00,34.2,26.4,29.72,NW,315,11.0,14.0,73,0.00,,,0.00,meteohub,2013-02-14 00:08:00,
2013-02-13 19:13:00,34.2,26.4,29.73,NW,315,8.0,15.0,73,0.00,,,0.00,meteohub,2013-02-14 00:13:00,
2013-02-13 19:18:00,34.0,26.2,29.73,WNW,293,5.0,15.0,73,0.00,,,0.00,meteohub,2013-02-14 00:18:00,
2013-02-13 19:23:00,34.0,26.2,29.73,NW,315,7.0,15.0,73,0.00,,,0.00,meteohub,2013-02-14 00:23:00,
2013-02-13 19:28:00,34.0,26.2,29.73,NW,315,4.0,9.0,73,0.00,,,0.00,meteohub,2013-02-14 00:28:00,
2013-02-13 19:33:00,33.8,26.1,29.73,NW,315,4.0,12.0,73,0.00,,,0.00,meteohub,2013-02-14 00:33:00,
2013-02-13 19:38:00,33.6,26.2,29.73,West,270,4.0,12.0,74,0.00,,,0.00,meteohub,2013-02-14 00:38:00,
2013-02-13 19:44:00,33.6,26.2,29.73,North,0,2.0,11.0,74,0.00,,,0.00,meteohub,2013-02-14 00:44:00,
2013-02-13 19:49:00,33.6,26.2,29.74,SSW,203,4.0,8.0,74,0.00,,,0.00,meteohub,2013-02-14 00:49:00,
2013-02-13 19:54:00,33.6,26.6,29.74,SW,225,3.0,8.0,75,0.00,,,0.00,meteohub,2013-02-14 00:54:00,
2013-02-13 19:59:00,33.8,26.8,29.74,SW,225,7.0,8.0,75,0.00,,,0.00,meteohub,2013-02-14 00:59:00,
2013-02-13 20:04:00,33.8,26.8,29.74,SW,225,1.0,8.0,75,0.00,,,0.00,meteohub,2013-02-14 01:04:00,
2013-02-13 20:09:00,34.0,27.0,29.74,SW,225,11.0,11.0,75,0.00,,,0.00,meteohub,2013-02-14 01:09:00,
2013-02-13 20:14:00,34.0,27.1,29.74,SW,225,4.0,11.0,76,0.00,,,0.00,meteohub,2013-02-14 01:14:00,
2013-02-13 20:19:00,34.2,27.3,29.74,SW,225,4.0,11.0,76,0.00,,,0.00,meteohub,2013-02-14 01:19:00,
2013-02-13 20:24:00,34.2,27.3,29.74,SW,225,5.0,11.0,76,0.00,,,0.00,meteohub,2013-02-14 01:24:00,
2013-02-13 20:29:00,34.2,27.3,29.74,SW,225,5.0,8.0,76,0.00,,,0.00,meteohub,2013-02-14 01:29:00,
2013-02-13 20:34:00,34.2,27.1,29.74,SW,225,2.0,10.0,75,0.00,,,0.00,meteohub,2013-02-14 01:34:00,
2013-02-13 20:39:00,34.2,27.1,29.73,SW,225,4.0,10.0,75,0.00,,,0.00,meteohub,2013-02-14 01:39:00,
2013-02-13 20:43:00,34.2,27.1,29.73,SW,225,3.0,10.0,75,0.00,,,0.00,meteohub,2013-02-14 01:43:00,
2013-02-13 20:47:00,34.2,27.1,29.73,SW,225,2.0,8.0,75,0.00,,,0.00,meteohub,2013-02-14 01:47:00,
2013-02-13 20:57:00,34.2,27.1,29.73,SW,225,9.0,9.0,75,0.00,,,0.00,meteohub,2013-02-14 01:57:00,
2013-02-13 21:02:00,34.3,27.5,29.74,SW,225,7.0,9.0,76,0.00,,,0.00,meteohub,2013-02-14 02:02:00,
2013-02-13 21:07:00,34.3,27.5,29.73,SW,225,7.0,9.0,76,0.00,,,0.00,meteohub,2013-02-14 02:07:00,
2013-02-13 21:12:00,34.5,27.7,29.74,SW,225,7.0,9.0,76,0.00,,,0.00,meteohub,2013-02-14 02:12:00,
2013-02-13 21:17:00,34.5,27.5,29.73,SW,225,7.0,11.0,75,0.00,,,0.00,meteohub,2013-02-14 02:17:00,
2013-02-13 21:22:00,34.5,27.5,29.74,SW,225,8.0,11.0,75,0.00,,,0.00,meteohub,2013-02-14 02:22:00,
2013-02-13 21:27:00,34.5,27.5,29.73,SW,225,11.0,11.0,75,0.00,,,0.00,meteohub,2013-02-14 02:27:00,
2013-02-13 21:32:00,34.5,27.5,29.73,SW,225,10.0,14.0,75,0.00,,,0.00,meteohub,2013-02-14 02:32:00,
2013-02-13 21:37:00,34.5,27.5,29.73,SW,225,10.0,14.0,75,0.00,,,0.00,meteohub,2013-02-14 02:37:00,
2013-02-13 21:42:00,34.5,27.5,29.73,SW,225,4.0,14.0,75,0.00,,,0.00,meteohub,2013-02-14 02:42:00,
2013-02-13 21:47:00,34.5,27.5,29.73,SW,225,10.0,12.0,75,0.00,,,0.00,meteohub,2013-02-14 02:47:00,
2013-02-13 21:52:00,34.5,27.5,29.73,SW,225,4.0,13.0,75,0.00,,,0.00,meteohub,2013-02-14 02:52:00,
2013-02-13 21:57:00,34.5,27.5,29.73,SW,225,9.0,15.0,75,0.00,,,0.00,meteohub,2013-02-14 02:57:00,
2013-02-13 22:02:00,34.7,27.7,29.73,SW,225,12.0,15.0,75,0.00,,,0.00,meteohub,2013-02-14 03:02:00,
2013-02-13 22:07:00,34.7,27.7,29.73,SW,225,5.0,15.0,75,0.00,,,0.00,meteohub,2013-02-14 03:07:00,
2013-02-13 22:12:00,34.5,27.5,29.73,SW,225,6.0,12.0,75,0.00,,,0.00,meteohub,2013-02-14 03:12:00,
2013-02-13 22:17:00,34.5,27.7,29.73,SW,225,5.0,12.0,76,0.00,,,0.00,meteohub,2013-02-14 03:17:00,
2013-02-13 22:22:00,34.5,27.7,29.73,SW,225,2.0,11.0,76,0.00,,,0.00,meteohub,2013-02-14 03:22:00,
2013-02-13 22:27:00,34.5,27.7,29.72,SW,225,1.0,11.0,76,0.00,,,0.00,meteohub,2013-02-14 03:27:00,
2013-02-13 22:32:00,34.5,27.7,29.73,SW,225,6.0,10.0,76,0.00,,,0.00,meteohub,2013-02-14 03:32:00,
2013-02-13 22:38:00,34.5,27.7,29.73,SW,225,3.0,11.0,76,0.00,,,0.00,meteohub,2013-02-14 03:38:00,
2013-02-13 22:43:00,34.5,27.7,29.72,SW,225,5.0,11.0,76,0.00,,,0.00,meteohub,2013-02-14 03:43:00,
2013-02-13 22:48:00,34.5,27.7,29.72,SW,225,6.0,10.0,76,0.00,,,0.00,meteohub,2013-02-14 03:48:00,
2013-02-13 22:53:00,34.5,27.7,29.73,WSW,248,14.0,14.0,76,0.00,,,0.00,meteohub,2013-02-14 03:53:00,
2013-02-13 22:58:00,34.7,27.3,29.72,West,270,11.0,14.0,74,0.00,,,0.00,meteohub,2013-02-14 03:58:00,
2013-02-13 23:03:00,34.7,27.3,29.72,West,270,9.0,14.0,74,0.00,,,0.00,meteohub,2013-02-14 04:03:00,
2013-02-13 23:08:00,34.7,27.0,29.72,West,270,11.0,14.0,73,0.00,,,0.00,meteohub,2013-02-14 04:08:00,
2013-02-13 23:13:00,34.7,27.0,29.71,NW,315,11.0,12.0,73,0.00,,,0.00,meteohub,2013-02-14 04:13:00,
2013-02-13 23:18:00,34.5,26.8,29.71,NW,315,10.0,12.0,73,0.00,,,0.00,meteohub,2013-02-14 04:18:00,
2013-02-13 23:23:00,34.5,27.1,29.71,NW,315,12.0,13.0,74,0.00,,,0.00,meteohub,2013-02-14 04:23:00,
2013-02-13 23:28:00,34.5,26.8,29.71,NW,315,11.0,14.0,73,0.00,,,0.00,meteohub,2013-02-14 04:28:00,
2013-02-13 23:33:00,34.5,26.8,29.71,NW,315,5.0,14.0,73,0.00,,,0.00,meteohub,2013-02-14 04:33:00,
2013-02-13 23:38:00,34.5,26.8,29.71,NW,315,4.0,14.0,73,0.00,,,0.00,meteohub,2013-02-14 04:38:00,
2013-02-13 23:43:00,34.3,26.6,29.71,SW,225,6.0,13.0,73,0.00,,,0.00,meteohub,2013-02-14 04:43:00,
2013-02-13 23:48:00,34.3,26.6,29.71,SW,225,4.0,11.0,73,0.00,,,0.00,meteohub,2013-02-14 04:48:00,
2013-02-13 23:53:00,34.2,26.4,29.71,SW,225,10.0,10.0,73,0.00,,,0.00,meteohub,2013-02-14 04:53:00,
2013-02-13 23:58:00,34.2,26.4,29.71,WSW,248,12.0,12.0,73,0.00,,,0.00,meteohub,2013-02-14 04:58:00,